FW4661 Weather Reports


Display with metric or nautical units.
time (UTC)temp
F
wind
direction
speed
MPH
gust
MPH
rain 1hr
in
rain 24hr
in
rain mn
in
humidity
%
barometer
mb
20260504043003 52 315 2.0 4.0 0.00 0.01 0.01 81 1050.2
20260504020004 53 227 8.0 15.0 0.00 0.01 0.01 85 1050.4
20260504015003 53 214 3.0 13.0 0.00 0.01 0.01 86 1050.6
20260504014003 53 205 4.0 13.0 0.00 0.01 0.01 87 1050.5
20260504013004 53 225 4.0 10.0 0.00 0.01 0.01 88 1050.8
20260504012003 52 200 3.0 6.0 0.00 0.01 0.01 89 1050.8
20260504011003 52 192 4.0 14.0 0.00 0.01 0.01 89 1051.1
20260504010004 52 211 4.0 12.0 0.00 0.01 0.01 90 1051.2
20260504005004 52 212 4.0 13.0 0.00 0.01 0.01 91 1051.5
20260504004003 51 208 4.0 8.0 0.00 0.01 0.01 92 1051.7
20260504003217 51 194 2.0 12.0 0.00 0.01 0.01 92 1051.8
20260504002003 51 185 5.0 14.0 0.00 0.01 0.01 92 1052.1
20260504001214 51 179 2.0 11.0 0.00 0.01 0.01 92 1052.1
20260504000003 51 192 4.0 14.0 0.00 0.01 0.01 93 1052.2
20260503235216 51 203 8.0 14.0 0.00 0.01 0.01 93 1052.3
20260503234003 51 186 8.0 12.0 0.00 0.01 0.01 93 1052.4
20260503233003 51 187 3.0 17.0 0.00 0.01 0.01 93 1052.3
20260503232003 50 200 5.0 17.0 0.00 0.01 0.01 93 1052.4
20260503231004 50 210 7.0 17.0 0.00 0.01 0.01 93 1052.5
20260503230216 50 198 6.0 21.0 0.00 0.01 0.01 94 1052.4
20260503225003 49 182 4.0 17.0 0.00 0.01 0.01 94 1052.5
20260503224218 49 183 7.0 17.0 0.00 0.01 0.01 94 1052.4
20260503223213 49 201 3.0 14.0 0.00 0.01 0.01 94 1052.2
20260503222003 49 199 9.0 22.0 0.00 0.01 0.01 94 1052.5
20260503221004 49 204 6.0 18.0 0.00 0.01 0.01 94 1052.3
20260503220003 48 183 4.0 14.0 0.00 0.01 0.01 94 1052.0
20260503215003 48 202 6.0 23.0 0.00 0.01 0.01 95 1052.3
20260503214004 48 206 12.0 23.0 0.00 0.01 0.01 95 1052.2
20260503213004 47 183 8.0 23.0 0.00 0.01 0.01 94 1052.1
20260503212003 47 180 8.0 15.0 0.00 0.01 0.01 94 1052.2
20260503211003 47 199 8.0 15.0 0.00 0.01 0.01 94 1052.0
20260503210004 47 210 2.0 11.0 0.00 0.01 0.01 94 1052.1
20260503205003 46 194 2.0 24.0 0.00 0.01 0.01 94 1052.1
20260503204003 46 208 2.0 12.0 0.00 0.01 0.01 94 1052.0
20260503203004 46 209 2.0 9.0 0.00 0.01 0.01 94 1052.0
20260503202004 45 194 2.0 9.0 0.00 0.01 0.01 93 1052.0
20260503201003 45 184 2.0 13.0 0.00 0.01 0.01 93 1051.7
20260503200004 45 188 2.0 13.0 0.00 0.01 0.01 93 1051.6
20260503195004 45 192 7.0 13.0 0.00 0.01 0.01 93 1051.5
20260503194003 45 203 2.0 4.0 0.01 0.01 0.01 93 1051.3
20260503193003 45 205 2.0 4.0 0.01 0.01 0.01 93 1050.9
20260503192003 45 211 2.0 4.0 0.01 0.01 0.01 93 1051.0
20260503191004 45 201 3.0 6.0 0.01 0.01 0.01 93 1050.9
20260503190004 45 204 2.0 7.0 0.01 0.01 0.01 92 1051.0
20260503185004 45 202 3.0 8.0 0.01 0.01 0.01 92 1051.0
20260503184003 45 209 3.0 7.0 0.00 0.00 0.00 92 1050.9
20260503183003 45 193 2.0 6.0 0.00 0.00 0.00 92 1051.0
20260503182005 44 209 2.0 6.0 0.00 0.00 0.00 93 1051.0
20260503181004 44 194 3.0 5.0 0.00 0.00 0.00 92 1051.0
20260503180004 44 194 2.0 4.0 0.00 0.00 0.00 92 1050.7
20260503175003 43 216 2.0 3.0 0.00 0.00 0.00 92 1050.8
20260503174003 43 214 0.0 4.0 0.00 0.00 0.00 92 1050.8
20260503173004 43 216 0.0 3.0 0.00 0.00 0.00 92 1050.8
20260503172004 43 213 2.0 4.0 0.00 0.00 0.00 92 1050.8
20260503171004 43 208 0.0 3.0 0.00 0.00 0.00 91 1051.0
20260503151003 42 0 0.0 0.0 0.00 0.00 0.00 90 1050.8
20260503150216 42 225 0.0 2.0 0.00 0.00 0.00 90 1050.7
20260503131003 42 0 0.0 0.0 0.00 0.00 0.00 88 1051.1
20260503081004 53 304 0.0 4.0 0.00 0.00 0.00 83 1050.9
20260503072003 54 284 1.0 4.0 0.00 0.00 0.00 83 1050.9
20260503071003 54 336 3.0 8.0 0.00 0.00 0.00 83 1050.9
20260503054003 55 304 2.0 8.0 0.00 0.00 0.00 79 1050.5
20260503053003 55 318 3.0 15.0 0.00 0.00 0.00 78 1050.6
20260503052004 56 327 2.0 20.0 0.00 0.00 0.00 78 1050.4
20260503051004 56 334 3.0 28.0 0.00 0.00 0.00 77 1050.3
20260503050003 57 326 3.0 35.0 0.00 0.00 0.00 76 1050.5
20260503045003 57 326 7.0 23.0 0.00 0.00 0.00 75 1050.4